Weather History for Madison, MN

Change the Weather History Date:

Friday, April 27, 2012

  Actual Average (KAQP) Record (KAQP)
Temperature  
Mean Temperature 52 °F -  
Max Temperature 60 °F 61 °F 78 °F (2004)
Min Temperature 44 °F 36 °F 21 °F (2008)
Degree Days  
Heating Degree Days 13    
Growing Degree Days 2 (Base 50)    
Moisture  
Dew Point 33 °F    
Average Humidity 51    
Maximum Humidity 81    
Minimum Humidity 30    
Precipitation  
Precipitation 0.00 in - - ()
Sea Level Pressure  
Sea Level Pressure 30.00 in    
Wind  
Wind Speed 18 mph (ESE)    
Max Wind Speed 31 mph    
Max Gust Speed 39 mph    
Visibility 10 miles    
Events Rain    
Averages and records for this station are not official NWS values.
T = Trace of Precipitation, MM = Missing Value Source: NWS Daily Summary

Daily Weather History Graph

Daily Weather History Graph

Search for Another Location

Airport:

Trip Planner

Search our weather history database for the weather conditions in past years. The results will help you decide how hot, cold, wet, or windy it might be!

Date:

Astronomy

Apr. 27, 2012 Rise Set
Actual Time 6:19 AM CDT 8:25 PM CDT
Civil Twilight 5:47 AM CDT 8:58 PM CDT
Nautical Twilight 5:08 AM CDT 9:37 PM CDT
Astronomical Twilight 4:24 AM CDT 10:21 PM CDT
Moon 10:54 AM CDT 1:17 AM CDT
Length of Visible Light 15h 10m
Length of Day
14h 06m
Waxing Crescent, 33% of the Moon is Illuminated
Apr 27
Waxing Crescent
Apr 29
First Quarter
May 5
Full
May 12
Last Quarter
May 20
New

Hourly Weather History & Observations

Time (CDT) Temp. Windchill Dew Point Humidity Pressure Visibility Wind Dir Wind Speed Gust Speed Precip Events Conditions
12:14 AM 53.6 °F - 23.0 °F 30% 30.10 in 10.0 mi ESE 12.7 mph - N/A   Scattered Clouds
12:34 AM 53.6 °F - 23.0 °F 30% 30.09 in 10.0 mi SE 13.8 mph 19.6 mph N/A   Scattered Clouds
12:53 AM 53.6 °F - 24.8 °F 33% 30.09 in 10.0 mi SE 11.5 mph 17.3 mph N/A   Clear
1:14 AM 53.6 °F - 23.0 °F 30% 30.10 in 10.0 mi ESE 12.7 mph - N/A   Scattered Clouds
1:33 AM 53.6 °F - 24.8 °F 33% 30.10 in 10.0 mi SE 12.7 mph - N/A   Mostly Cloudy
1:54 AM 53.6 °F - 24.8 °F 33% 30.10 in 10.0 mi SE 13.8 mph - N/A   Mostly Cloudy
2:13 AM 51.8 °F - 28.4 °F 41% 30.10 in 10.0 mi SE 16.1 mph - N/A Rain Light Rain
2:33 AM 51.8 °F - 30.2 °F 44% 30.10 in 10.0 mi SE 12.7 mph - N/A   Overcast
2:54 AM 50.0 °F - 35.6 °F 58% 30.11 in 10.0 mi SE 11.5 mph - N/A Rain Light Rain
3:14 AM 48.2 °F - 37.4 °F 66% 30.10 in 10.0 mi ESE 10.4 mph - N/A Rain Light Rain
3:33 AM 48.2 °F - 39.2 °F 71% 30.10 in 10.0 mi ESE 8.1 mph - N/A Rain Light Rain
3:54 AM 48.2 °F - 39.2 °F 71% 30.09 in 10.0 mi ESE 9.2 mph - N/A Rain Light Rain
4:13 AM 48.2 °F - 37.4 °F 66% 30.08 in 10.0 mi ESE 12.7 mph - N/A Rain Light Rain
4:33 AM 48.2 °F - 35.6 °F 62% 30.08 in 10.0 mi SE 10.4 mph - N/A   Overcast
4:54 AM 48.2 °F - 35.6 °F 62% 30.07 in 10.0 mi SE 11.5 mph - N/A   Scattered Clouds
5:13 AM 48.2 °F - 33.8 °F 58% 30.06 in 10.0 mi SE 15.0 mph 18.4 mph N/A   Mostly Cloudy
5:33 AM 48.2 °F - 35.6 °F 62% 30.06 in 10.0 mi SE 12.7 mph - N/A   Light Drizzle
5:54 AM 48.2 °F - 35.6 °F 62% 30.05 in 10.0 mi SE 17.3 mph - N/A Rain Light Rain
6:14 AM 46.4 °F 39.5 °F 37.4 °F 71% 30.05 in 10.0 mi SE 17.3 mph - N/A Rain Rain
6:33 AM 46.4 °F 40.1 °F 39.2 °F 76% 30.06 in 10.0 mi SE 15.0 mph - N/A Rain Light Rain
6:54 AM 46.4 °F 39.5 °F 39.2 °F 76% 30.06 in 10.0 mi SE 17.3 mph - N/A Rain Heavy Rain
7:13 AM 46.4 °F 39.2 °F 39.2 °F 76% 30.07 in 10.0 mi SE 18.4 mph 25.3 mph N/A Rain Rain
7:34 AM 46.4 °F 39.2 °F 39.2 °F 76% 30.08 in 7.0 mi SE 18.4 mph 24.2 mph N/A Rain Light Rain
7:53 AM 46.4 °F 39.2 °F 39.2 °F 76% 30.08 in 10.0 mi SE 18.4 mph - N/A Rain Light Rain
8:13 AM 44.6 °F 36.1 °F 39.2 °F 81% 30.06 in 7.0 mi ESE 21.9 mph - N/A Rain Light Rain
8:33 AM 46.4 °F 39.0 °F 39.2 °F 76% 30.07 in 10.0 mi SE 19.6 mph 25.3 mph N/A   Mostly Cloudy
8:53 AM 46.4 °F 39.8 °F 39.2 °F 76% 30.08 in 10.0 mi ESE 16.1 mph 23.0 mph N/A   Overcast
9:14 AM 46.4 °F 39.2 °F 37.4 °F 71% 30.09 in 10.0 mi SE 18.4 mph - N/A   Overcast
9:33 AM 46.4 °F 39.8 °F 37.4 °F 71% 30.08 in 10.0 mi SE 16.1 mph - N/A   Light Drizzle
9:53 AM 46.4 °F 39.5 °F 37.4 °F 71% 30.06 in 10.0 mi ESE 17.3 mph 24.2 mph N/A   Light Drizzle
10:14 AM 46.4 °F 38.7 °F 37.4 °F 71% 30.05 in 10.0 mi ESE 20.7 mph 25.3 mph N/A   Overcast
10:33 AM 48.2 °F - 37.4 °F 66% 30.05 in 10.0 mi ESE 24.2 mph 27.6 mph N/A   Scattered Clouds
10:53 AM 48.2 °F - 37.4 °F 66% 30.04 in 10.0 mi ESE 21.9 mph 31.1 mph N/A   Scattered Clouds
11:14 AM 50.0 °F - 37.4 °F 62% 30.04 in 10.0 mi ESE 27.6 mph 33.4 mph N/A   Scattered Clouds
11:33 AM 51.8 °F - 37.4 °F 58% 30.03 in 10.0 mi ESE 28.8 mph 35.7 mph N/A   Scattered Clouds
11:53 AM 51.8 °F - 37.4 °F 58% 30.02 in 10.0 mi ESE 27.6 mph 35.7 mph N/A   Scattered Clouds
12:14 PM 51.8 °F - 35.6 °F 54% 30.01 in 10.0 mi ESE 29.9 mph 35.7 mph N/A   Mostly Cloudy
12:34 PM 51.8 °F - 35.6 °F 54% 30.01 in 10.0 mi SE 28.8 mph 34.5 mph N/A   Scattered Clouds
12:53 PM 53.6 °F - 37.4 °F 54% 30.00 in 10.0 mi ESE 26.5 mph 33.4 mph N/A   Clear
1:14 PM 55.4 °F - 37.4 °F 51% 29.99 in 10.0 mi ESE 28.8 mph 34.5 mph N/A   Scattered Clouds
1:34 PM 55.4 °F - 35.6 °F 47% 29.98 in 10.0 mi ESE 31.1 mph 38.0 mph N/A   Scattered Clouds
1:54 PM 57.2 °F - 37.4 °F 48% 29.97 in 10.0 mi ESE 29.9 mph 34.5 mph N/A   Scattered Clouds
2:13 PM 55.4 °F - 35.6 °F 47% 29.97 in 10.0 mi SE 25.3 mph 35.7 mph N/A   Mostly Cloudy
2:34 PM 55.4 °F - 35.6 °F 47% 29.97 in 10.0 mi ESE 27.6 mph 36.8 mph N/A   Overcast
2:54 PM 57.2 °F - 35.6 °F 44% 29.97 in 10.0 mi ESE 24.2 mph 33.4 mph N/A   Mostly Cloudy
3:13 PM 57.2 °F - 33.8 °F 41% 29.96 in 10.0 mi ESE 24.2 mph 32.2 mph N/A   Mostly Cloudy
3:34 PM 60.8 °F - 35.6 °F 39% 29.93 in 10.0 mi ESE 29.9 mph 34.5 mph N/A   Scattered Clouds
3:54 PM 57.2 °F - 32.0 °F 38% 29.90 in 10.0 mi East 27.6 mph 36.8 mph N/A   Clear
4:13 PM 57.2 °F - 30.2 °F 36% 29.91 in 10.0 mi ESE 28.8 mph 33.4 mph N/A   Clear
4:34 PM 57.2 °F - 30.2 °F 36% 29.91 in 10.0 mi ESE 27.6 mph 38.0 mph N/A   Clear
4:53 PM 57.2 °F - 26.6 °F 31% 29.90 in 10.0 mi ESE 29.9 mph 39.1 mph N/A   Scattered Clouds
5:14 PM 57.2 °F - 26.6 °F 31% 29.89 in 10.0 mi East 26.5 mph 35.7 mph N/A   Mostly Cloudy
5:34 PM 57.2 °F - 26.6 °F 31% 29.90 in 10.0 mi East 25.3 mph 34.5 mph N/A   Overcast
5:53 PM 55.4 °F - 28.4 °F 36% 29.89 in 10.0 mi East 26.5 mph 35.7 mph N/A   Mostly Cloudy
6:14 PM 55.4 °F - 28.4 °F 36% 29.91 in 10.0 mi ESE 26.5 mph 29.9 mph N/A   Scattered Clouds
6:34 PM 55.4 °F - 28.4 °F 36% 29.90 in 10.0 mi ESE 21.9 mph 28.8 mph N/A   Scattered Clouds
6:53 PM 55.4 °F - 28.4 °F 36% 29.90 in 10.0 mi East 23.0 mph 26.5 mph N/A   Mostly Cloudy
7:14 PM 55.4 °F - 28.4 °F 36% 29.91 in 10.0 mi ESE 23.0 mph 27.6 mph N/A   Mostly Cloudy
7:34 PM 55.4 °F - 26.6 °F 33% 29.91 in 10.0 mi ESE 21.9 mph 31.1 mph N/A   Mostly Cloudy
7:53 PM 53.6 °F - 28.4 °F 38% 29.92 in 10.0 mi ESE 19.6 mph 28.8 mph N/A   Overcast
8:14 PM 53.6 °F - 30.2 °F 41% 29.91 in 10.0 mi East 21.9 mph 27.6 mph N/A   Overcast
8:34 PM 53.6 °F - 30.2 °F 41% 29.90 in 10.0 mi East 20.7 mph - N/A   Overcast
8:53 PM 53.6 °F - 30.2 °F 41% 29.89 in 10.0 mi East 20.7 mph 32.2 mph N/A   Overcast
9:14 PM 53.6 °F - 30.2 °F 41% 29.88 in 10.0 mi East 23.0 mph 31.1 mph N/A   Overcast
9:34 PM 53.6 °F - 30.2 °F 41% 29.87 in 10.0 mi East 23.0 mph 29.9 mph N/A   Overcast
9:53 PM 53.6 °F - 28.4 °F 38% 29.89 in 10.0 mi East 23.0 mph 32.2 mph N/A Rain Light Rain
10:14 PM 53.6 °F - 28.4 °F 38% 29.94 in 10.0 mi ESE 17.3 mph - N/A   Overcast
10:34 PM 53.6 °F - 30.2 °F 41% 29.94 in 10.0 mi ESE 16.1 mph 21.9 mph N/A Rain Light Rain
11:14 PM 51.8 °F - 32.0 °F 47% 29.93 in 10.0 mi ESE 16.1 mph 23.0 mph N/A   Overcast
11:34 PM 51.8 °F - 30.2 °F 44% 29.93 in 10.0 mi ESE 16.1 mph - N/A   Overcast
11:53 PM 51.8 °F - 30.2 °F 44% 29.93 in 10.0 mi ESE 16.1 mph 21.9 mph N/A   Overcast